Tracking 29892 objects as of 21-Nov-2024
HD Live streaming from Space Station
objects crossing your sky now

FENGYUN 1C DEB

Track FENGYUN 1C DEB now!
10-day predictions


NORAD ID: 29807
Int'l Code: 1999-025CZ
Perigee: 814.8 km
Apogee: 931.0 km
Inclination: 98.8 °
Period: 102.3 minutes
Semi major axis: 7243 km
RCS: 0.0767 m2 (small)
Launch date: May 10, 1999
Source: People's Republic of China (PRC)
Launch site: Taiyaun Space Center, China (TSC)

Note: This is SATELLITE DEBRIS
Your satellite tracking list
Your tracking list is empty




NASA's NSSDC Master Catalog

Two Line Element Set (TLE):
1 29807U 99025CZ  24325.82911171  .00000814  00000-0  48810-3 0  9994
2 29807  98.7608 335.6595 0080259 344.2812  15.5868 14.08136474916489
Source of the keplerian elements: AFSPC